STARLINK-36791, 68111

Orbit data source: Space-Track

STARLINK-36791, 68111 is a payload satellite owned by SpaceX/Seattle (US) in SSO that was launched on Sun, 08 Mar 2026 UTC via an FALCON 9 launch vehicle from the Air Force Western Test Range (AFWTR). Payload-class satellites include a variety of spacecraft equipped with specific instruments for various scientific and technological missions. These include communications satellites like Starlink; space stations such as the ISS; scientific satellites like the Hubble; Earth observation satellites from companies like Planet Labs, Umbra, and HawkEye 360; GPS; miniature CubeSats for education and research; and military/defense satellites.

Loading next visibility...
Identifier
68111, 2026-044L
Orbit
SSO
Country
Flag of USUS
Related business
Manufacturer
SpaceX/Seattle
Mission
Operational Commercial Communications
Bus & Motor
STARLINK V2MO, Unknown motor
Mass
575 kg wet, ~530 kg dry
Launch date (UTC)
2026-03-08 (6 months ago)
Launch vehicle
FALCON 9
Launch site
Air Force Western Test Range (AFWTR)
Object type
Payload
Rocket body
Debris
Shape & HBR
Box + 1 Pan, 17.7 m
Radar Cross Section
41.120 m², Large (>1 m²)

Expand to show TLE details & history
Last TLE update: 14 hours ago

TLE from 14 hours ago
0 STARLINK-36791
1 68111U 26044L   26246.83991980  .00018502  00000-0  57399-3 0  9992
2 68111  97.2847 206.0107 0001802  95.9121 264.2327 15.33445558 28885
Epoch: 2026-09-03T20:09Z
TLE epoch observation values (Epoch: 2026-09-03T20:09:29.070Z)
Latitude
-0.00006°
Longitude
-79.33275°
Altitude
468.778 km
Speed
7.632 km/s
True Right ascension
13h 44m 02s
True Declination
0° 00' 00"
Sunlit
Object was in daylight at epoch
Visualization orbit readout
Latitude
Unknown
Longitude
Unknown
Altitude
Unknown
Speed
Unknown
Apparent Right ascension
Unknown
Apparent Declination
Unknown
Sunlit
N/A
Visualization observer readout
Local Sidereal Time
01:43:02
Azimuth
Unknown
Elevation
Unknown
Doppler factor
Unknown
Orbital elements
Apogee altitude
463.717 km
Perigee altitude
461.252 km
Semi-major axis
6,840.621 km
Eccentricity
0.00018
Inclination
97.2847°
RAAN
206.0107°
Arg. of periapsis
95.9121°
True anomaly
264.21216°
Mean anomaly
264.2327°
Eccentric anomaly
264.22243°
Mean motion
3.83619 °/min
Orbital period
93.84 mins
BSTAR
0.00057399
Loading maneuver chart data...
Computing Atmospheric mass density...
Loading historical data...
Loading historical data...
Loading historical data...
Loading historical data...
Loading historical data...
Loading historical data...
Loading historical data...

Documentation

Showing up to 5 results
|